Location: *
(41.3833°S, 177.8333°W)
Time: 02:15:16
(UTC+00:00)

Cosmos 1743 - Pass Details

Date: 01 April 2020
Orbit: 510 x 528 km, 82.6° (Epoch: 05 June)

Event Time Altitude Azimuth Distance (km) Brightness Sun altitude
Exits shadow 17:00:05 16° 313° (NW) 1,448 4.5 -13.5°
Maximum altitude 17:02:40 32° 257° (WSW) 935 3.5 -13.1°
Drops below altitude 10° 17:06:14 10° 192° (SSW) 1,797 5.4 -12.4°
Sets 17:08:34 0° 182° (S) 2,692 6.4 -12.0°
